Location: Waco, TX
(31.5480°N, 97.1670°W)
Time: 22:58:28
(UTC-05:00)

ISS - Pass Details

Date: 20 April 2018
Orbit: 403 x 406 km, 51.6° (Epoch: 23 April)

Event Time Altitude Azimuth Distance (km) Brightness Sun altitude
Rises 09:07:43 0° 201° (SSW) 2,298 -0.2 27.3°
Reaches altitude 10° 09:09:58 10° 189° (S) 1,444 -1.0 27.8°
Maximum altitude 09:12:46 27° 129° (SE) 817 -1.1 28.4°
Drops below altitude 10° 09:15:33 10° 70° (ENE) 1,453 0.2 29.0°
Sets 09:17:50 0° 57° (ENE) 2,316 0.8 29.5°
